Find Starlink 31645

NORAD ID: 59264 Int'l Des: 2024-050 Owner: SPXS Country: US Constellation: starlink operational
LEOCIRCULAR

リアルタイム位置

3D地球を読み込み中...

Starlink 31645について

説明を読み込み中...

次回通過

Passes for default location (London). Set your location on the main map for personalized predictions.

高度履歴

Loading altitude history...

軌道要素

1 59264U 24050L 26132.67692751 .00006974 00000-0 24737-3 0 9996
2 59264 53.1586 243.8950 0000843 80.4462 279.6634 15.30200284120348
Epoch: May 12, 2026 • Age: 17 hours

現在のステータス

高度 483.9 km
速度 7.62 km/s
衛星直下点 -27.93°S, 79.92°E
打ち上げ日 Mar 19, 2024
運用期間 2.1 years
タイプ internet

技術仕様

分類 Payload
質量 730.00 kg
乾燥質量 700.00 kg
総質量 730.00 kg
長さ 0.30 m
直径 4.10 m
スパン 29.00 m
形状 Box + pan
製造者 SPXS
バスタイプ Starlink V2M
フェーズステータス In Orbit
所有者/国 SPXS/US

Most Searched